Home   Weather   Monza   Past weeks

Flag for Italy Past Weather in Monza, Italy — Yesterday and Last 2 Weeks

Now
55 °F

Partly sunny.


Feels Like: 53 °F
Forecast: 54 / 64 °F
Wind: 9 mph from East

Location: Milan / Linate

Current Time: Apr 24, 2017 at 9:42:54 am

Latest Report: Apr 24, 2017 at 8:50 am


Visibility: N/A

Pressure: 30.12 "Hg

Humidity: 77%

Dew Point: 48 °F

Location of MonzaLocation

Past Weather in Monza — Graph

°F

Monza Temperature Yesterday

Maximum temperature yesterday: 72 °F (at 2:50 pm)
Minimum temperature yesterday: 45 °F (at 6:20 am)
Average temperature yesterday: 61 °F

High & Low Weather Summary for the Past Weeks

 TemperatureHumidityPressure
High77 °F (Apr 10, 4:20 pm)100% (Apr 16, 3:50 am)30.39 "Hg (Apr 16, 3:50 am)
Low34 °F (Apr 20, 6:20 am)11% (Apr 18, 3:50 pm)29.77 "Hg (Apr 13, 3:50 pm)
Average60 °F50%30.03 "Hg
* Reported Apr 9 8:20 am — Apr 24 8:20 am, Monza, Weather by CustomWeather, © 2017

Note: Actual official high and low records may vary slightly from our data, if they occured in-between our weather recording intervals... More about our weather records

Advertising

Monza Weather History for the Previous 24 Hours

Scroll right to see more
 ConditionsComfort  
Time TempWeatherWind HumidityBarometerVisibility
8:20 am
Mon, Apr 24
55 °FBroken clouds.9 mph77%30.12 "HgN/A
7:50 am55 °FBroken clouds.8 mph77%30.12 "HgN/A
7:20 am55 °FBroken clouds.6 mph72%30.09 "HgN/A
6:50 am55 °FPartly sunny.8 mph72%30.09 "HgN/A
6:20 am55 °FPassing clouds.6 mph72%30.09 "HgN/A
5:50 am55 °FPassing clouds.7 mph67%30.09 "HgN/A
5:20 am55 °FPassing clouds.5 mph67%30.09 "HgN/A
4:50 am55 °FPassing clouds.5 mph67%30.09 "HgN/A
4:20 am55 °FPassing clouds.7 mph67%30.09 "HgN/A
3:50 am55 °FPassing clouds.8 mph67%30.09 "HgN/A
3:20 am55 °FPassing clouds.7 mph63%30.09 "HgN/A
2:50 am57 °FPassing clouds.7 mph63%30.09 "HgN/A
2:20 am57 °FPassing clouds.7 mph63%30.09 "HgN/A
1:50 am57 °FPassing clouds.7 mph67%30.09 "HgN/A
1:20 am59 °FPassing clouds.7 mph59%30.09 "HgN/A
12:50 am59 °FPartly cloudy.8 mph63%30.09 "HgN/A
12:20 am61 °FPartly cloudy.9 mph63%30.09 "HgN/A
11:50 pm
Sun, Apr 23
61 °FPartly cloudy.7 mph59%30.09 "HgN/A
11:20 pm61 °FPartly cloudy.1 mph59%30.07 "HgN/A
10:50 pm61 °FPartly cloudy.2 mph59%30.07 "HgN/A
10:20 pm61 °FPartly cloudy.2 mph59%30.07 "HgN/A
9:50 pm61 °FPartly cloudy.5 mph59%30.04 "HgN/A
9:20 pm63 °FPartly cloudy.8 mph56%30.04 "HgN/A
8:50 pm63 °FPartly cloudy.9 mph56%30.01 "HgN/A
8:20 pm64 °FPassing clouds.9 mph52%30.01 "HgN/A
7:50 pm66 °FPassing clouds.9 mph49%29.98 "HgN/A
7:20 pm68 °FPassing clouds.9 mph46%29.98 "HgN/A
6:50 pm68 °FScattered clouds.12 mph43%29.98 "HgN/A
6:20 pm70 °FScattered clouds.10 mph40%29.98 "HgN/A
5:50 pm72 °FScattered clouds.9 mph36%29.98 "HgN/A
5:20 pm72 °FPassing clouds.9 mph33%29.95 "HgN/A
4:50 pm72 °FPassing clouds.7 mph31%29.95 "HgN/A
4:20 pm72 °FPassing clouds.7 mph31%29.95 "HgN/A
3:50 pm72 °FPassing clouds.6 mph33%29.98 "HgN/A
3:20 pm72 °FScattered clouds.7 mph33%29.98 "HgN/A
2:50 pm72 °FPassing clouds.8 mph36%29.98 "HgN/A
2:20 pm70 °FPassing clouds.6 mph38%29.98 "HgN/A
1:50 pm70 °FScattered clouds.8 mph38%30.01 "HgN/A
1:20 pm68 °FScattered clouds.8 mph43%30.01 "HgN/A
12:50 pm66 °FScattered clouds.7 mph49%30.01 "HgN/A
12:20 pm64 °FScattered clouds.7 mph52%30.01 "HgN/A
11:50 am66 °FPassing clouds.9 mph49%30.01 "HgN/A
11:20 am63 °FPassing clouds.9 mph59%30.01 "HgN/A
10:50 am63 °FPassing clouds.6 mph59%30.01 "HgN/A
10:20 am61 °FSunny.6 mph59%30.01 "Hg10 mi
9:50 am59 °FSunny.6 mph63%30.01 "Hg10 mi
Weather by CustomWeather, © 2017

See weather overviewHow to use our weather pages